This is the latest recevied weather packets stored in our database for station/object OH7GGX-14. If no packets are shown the sender has not sent any weather packets the latest 10 day(s).
| Time | Temp. | Humidity | Pressure | Rain* | Wind** | Luminosity | Snow |
|---|---|---|---|---|---|---|---|
| 1787936818 | 12.22° C | 99% | 1027.5 hPa | 0 mm | - | - | - |
| 1787936218 | 12.78° C | 99% | 1027.5 hPa | 0 mm | - | - | - |
| 1787935618 | 12.78° C | 99% | 1027.5 hPa | 0 mm | - | - | - |
| 1787935018 | 13.33° C | 99% | 1027.5 hPa | 0 mm | - | - | - |
| 1787934418 | 13.33° C | 99% | 1027.5 hPa | 0 mm | - | - | - |
| 1787933818 | 13.33° C | 99% | 1027.5 hPa | 0 mm | - | - | - |
| 1787933218 | 13.89° C | 99% | 1027.4 hPa | 0 mm | - | - | - |
| 1787932618 | 14.44° C | 99% | 1027.6 hPa | 0 mm | - | - | - |
| 1787932018 | 14.44° C | 99% | 1027.7 hPa | 0 mm | - | - | - |
| 1787931418 | 14.44° C | 96% | 1027.7 hPa | 0 mm | - | - | - |
| 1787930818 | 14.44° C | 95% | 1027.9 hPa | 0 mm | - | - | - |
| 1787930218 | 14.44° C | 93% | 1027.9 hPa | 0 mm | - | - | - |
| 1787929618 | 14.44° C | 92% | 1027.9 hPa | 0 mm | - | - | - |
| 1787929018 | 13.89° C | 92% | 1028 hPa | 0 mm | - | - | - |
| 1787928418 | 13.89° C | 92% | 1028 hPa | 0 mm | - | - | - |
| 1787927818 | 13.89° C | 90% | 1028.2 hPa | 0 mm | - | - | - |
| 1787927218 | 14.44° C | 88% | 1028.4 hPa | 0 mm | - | - | - |
| 1787926618 | 15° C | 86% | 1028.4 hPa | 0 mm | - | - | - |
| 1787926018 | 15.56° C | 80% | 1028.4 hPa | 0 mm | - | - | - |
| 1787925418 | 15.56° C | 80% | 1028.4 hPa | 0 mm | - | - | - |
| 1787924818 | 16.11° C | 76% | 1028.5 hPa | 0 mm | - | - | - |
| 1787924218 | 16.11° C | 71% | 1028.6 hPa | 0 mm | - | - | - |
| 1787923618 | 16.67° C | 71% | 1028.6 hPa | 0 mm | - | - | - |
| 1787923018 | 16.67° C | 67% | 1028.6 hPa | 0 mm | - | - | - |
| 1787922418 | 16.67° C | 62% | 1028.7 hPa | 0 mm | - | - | - |
* Rain latest hour (hover to see other rain measurements)
** Current wind speed in m/s (hover to see current wind gust speed)